USA 485

operational
NORAD ID: 62756 Int'l Des: 2025-014 Owner: NROC Country: US
LEOCIRCULAR

About USA 485

Description loading...

Live Position

Loading 3D Globe...

Upcoming Passes

Altitude History

Altitude vs Time

uPlot chart will show altitude changes over time

Two-Line Element Set

1 62756U 25014X 25311.26629839 .00172280 00000-0 11024-2 0 9995
2 62756 42.9987 18.5381 0001196 252.1900 107.8839 15.75028276 45759
Epoch: Nov 7, 2025 • Age: 9 hours

Current Status

Altitude 347.3 km
Velocity 7.71 km/s
Sub-Earth Point 39.53°N, 153.51°E
Launch Date Jan 21, 2025
Age 0.7 years
Type military

Technical Details

Classification Payload
Mass 800.00 kg
Dry Mass 750.00 kg
Total Mass 800.00 kg
Length 0.30 m
Diameter 4.10 m
Span 29.00 m
Shape Box + pan
Manufacturer SPXS
Bus Type Starshield
Phase Status In Orbit
Owner/State NROC/US

Large Constellations

Loading constellations...